Tracking 19969 objects as of 12-Nov-2019
Live streaming from Space Station
objects crossing your sky now
Track the group of recently launched Starlink satellites

ARIANE 3 DEB

Track ARIANE 3 DEB now!


NORAD ID: 33538
Int'l Code: 1988-081N
Perigee: 555.0 km
Apogee: 36,112.2 km
Inclination: 6.7 °
Period: 644.1 minutes
Semi major axis: 24704 km
RCS: 0.0238 m2 (small)
Launch date: September 8, 1988
Source: France (FR)
Launch site: FRENCH GUIANA (FRGUI)

Note: This is SATELLITE DEBRIS
aabbcc
Your satellite tracking list
Your tracking list is empty




NASA's NSSDC Master Catalog

Two Line Element Set (TLE):
1 33538U 88081N   19314.15291663 -.00000045  00000-0 -92022-3 0  9997
2 33538   6.7487 187.4897 7196454 311.9616 266.5616  2.23581626116435
Source of the keplerian elements: AFSPC